Hourly Data Report for October 14, 2013

All times are specified in Local Standard Time (LST). Add 1 hour to adjust for Daylight Saving Time where and when it is observed.

GJOA HAVEN A
NUNAVUT

68°38'08.000" N
95°51'01.000" W
46.90 m
2302337
71597
YHK

Download Data

Hourly Data (October 2013)
Hourly Data Report for October 14, 2013
Temp Definition
°C
Dew Point Temp Definition
°C
Rel Hum Definition
%
Wind Dir Definition
10's deg

Wind Spd Definition
km/h
Visibility Definition
km
Stn Press Definition
kPa
Hmdx Definition


Wind Chill Definition


Weather Definition


TIME
00:00 Legend Double Dagger -2.8 -3.5 95 35 32 16.1 100.68   -10 LegendNANA
01:00 Legend Double Dagger -2.6 -3.2 96 35 30 16.1 100.69   -10 LegendNANA
02:00 Legend Double Dagger -2.3 -2.9 96 35 26 16.1 100.70   -9 LegendNANA
03:00 Legend Double Dagger -2.5 -2.9 97 35 30 16.1 100.71   -10 LegendNANA
04:00 Legend Double Dagger -2.5 -2.9 97 35 32 16.1 100.72   -10 LegendNANA
05:00 Legend Double Dagger -2.4 -2.8 97 35 35 16.1 100.71   -10 LegendNANA
06:00 Legend Double Dagger -2.7 -3.3 96 35 30 16.1 100.69   -10 LegendNANA
07:00 Legend Double Dagger -2.5 -3.2 95 36 32 16.1 100.69   -10 LegendNANA
08:00 Legend Double Dagger -2.5 -3.2 95 36 33 16.1 100.69   -10 LegendNANA
09:00 Legend Double Dagger -2.7 -3.3 96 35 32 16.1 100.69   -10 LegendNANA
10:00 Legend Double Dagger -2.8 -3.5 95 35 35 16.1 100.67   -11 LegendNANA
11:00 Legend Double Dagger -3.0 -3.8 94 35 32 16.1 100.67   -11 LegendNANA
12:00 Legend Double Dagger -3.7 -4.7 93 35 33 16.1 100.69   -12 LegendNANA
13:00 Legend Double Dagger -3.9 -5.0 92 35 32 16.1 100.70   -12 LegendNANA
14:00 Legend Double Dagger -3.8 -4.8 93 35 33 16.1 100.70   -12 LegendNANA
15:00 Legend Double Dagger -4.1 -5.1 93 35 33 16.1 100.70   -12 LegendNANA
16:00 Legend Double Dagger -4.9 -5.8 94 36 30 16.1 100.67   -13 LegendNANA
17:00 Legend Double Dagger -6.0 -7.0 93 35 24 16.1 100.67   -13 LegendNANA
18:00 Legend Double Dagger -6.5 -7.6 92 35 22 16.1 100.67   -14 LegendNANA
19:00 Legend Double Dagger -6.9 -7.8 93 35 24 16.1 100.63   -15 LegendNANA
20:00 Legend Double Dagger -6.9 -7.7 94 35 21 16.1 100.62   -14 LegendNANA
21:00 Legend Double Dagger -7.7 -8.7 93 35 22 16.1 100.56   -15 LegendNANA
22:00 Legend Double Dagger -8.0 -8.9 93 35 22 16.1 100.50   -16 LegendNANA
23:00 Legend Double Dagger -8.3 -9.2 93 35 22 16.1 100.46   -16 LegendNANA

Notes on Data Quality.

Legend

  • E = Estimated
  • M = Missing
  • NA = Not Available
  • ‡ = Partner data that is not subject to review by the National Climate Archives
Date modified: